SCP
-0 -0 -0 -0 -0 -0 -0 -0 -0 -0 -0 -0 -0 -0 -0 -0 -0 -0 -0 -0 -0 0 0 0 0 0 0 0 0 0 0 0 0 0 0 0 0 0 0 0 0 0 0 0 0 0 0
-0 -0 -0 -0 -0 -0 -0 -0 -0 -0 -0 -0 -0 -0 -0 -0 -0 -0 -0 -0 -0 -0 0 0 0 0 0 0 -0 0 0 0 0 0 0 0 0 0 0 0 0 0 0 0 0 0 0
-0 -0 -0 -0 -0 -0 -0 -0 -0 -0 -0 -0 -0 -0 -0 -0 -0 -0 -0 -0 -0 -0 0 0 0 0 0 0 0 0 0 -0 0 0 0 0 0 0 0 0 0 0 0 0 0 0 0
-0 -0 -0 -0 -0 -0 -0 -0 -0 -0 -0 -0 -0 -0 -0 -0 -0 -0 -0 -0 -0 -0 0 -0 0 0 0 0 -0 -0 0 0 0 0 0 0 0 0 0 0 0 0 0 0 0 0 0
-0 -0 -0 -0 -0 -0 -0 -0 -0 -0 -0 -0 -0 -0 -0 -0 -0 -0 -0 -0 -0 -0 0 0 0 0 0 -0 0 0 0 0 0 0 0 0 0 0 0 -0 0 0 0 0 0 0 0
0 0 0 -0 -0 -0 -0 -0 -0 -0 -0 -0 -0 -0 -0 -0 -0 -0 -0 -0 0 0 0 0 0 0 0 0 -0 -0 0 0 0 0 0 0 0 0 0 0 0 0 0 0 0 0 0
0 0 0 0 0 -0 -0 -0 -0 -0 -0 -0 -0 -0 -0 -0 -0 -0 0 0 0 0 0 0 0 0 0 -0 -0 -0 0 0 0 0 0 0 0 0 0 0 0 0 0 0 0 0 0
0 0 0 0 0 0 0 0 -0 -0 -0 -0 -0 -0 -0 -0 -0 -0 -0 0 0 0 0 0 0 0 0 0 0 0 0 0 0 0 0 0 0 0 0 0 0 0 0 0 0 0 0
0 0 0 0 0 0 0 0 0 0 -0 -0 -0 -0 -0 -0 -0 0 0 0 0 0 0 0 0 0 0 0 0 0 0 -0 0 0 0 0 0 0 0 0 0 0 0 0 0 0 0
0 0 0 0 0 0 0 0 0 0 -0 -0 -0 -0 -0 -0 0 0 0 0 0 0 0 0 0 0 0 -0 0 -0 0 0 0 0 0 0 0 0 0 0 0 0 0 0 0 0 0
0 0 0 0 0 0 0 0 0 0 0 0 0 -0 0 0 0 0 0 0 0 0 0 0 0 0 0 0 0 0 0 0 0 0 0 0 0 0 0 0 0 0 0 0 0 0 0
0 0 0 0 0 0 0 0 0 0 0 0 0 -0 0 0 0 0 0 0 0 0 0 0 0 0 0 -0 0 -0 0 0 0 0 0 0 0 0 0 0 0 0 0 0 0 0 0
0 0 0 0 0 0 0 0 0 0 0 0 0 -0 0 0 0 0 0 0 0 0 0 0 0 -0 -0 0 0 0 0 0 0 0 0 0 0 0 0 0 0 0 0 0 0 0 0
0 0 0 0 0 0 0 0 0 0 0 0 0 0 0 0 0 0 0 0 0 0 0 0 0 0 0 0 0 -0 -0 0 0 0 0 0 0 0 0 0 0 0 0 0 0 0 0
0 0 0 0 0 0 0 0 0 0 0 0 0 0 0 0 0 0 0 0 0 0 0 0 0 0 -0 -0 0 0 -0 -0 0 0 0 0 0 0 0 0 0 0 0 0 0 0 0
0 0 0 0 0 0 0 0 0 0 -0 -0 0 0 0 0 0 0 0 0 -0 0 0 0 0 0 0 -0 0 0 0 -0 0 0 0 0 0 0 0 0 0 0 0 0 0 0 0
0 0 0 0 0 0 0 0 0 0 -0 0 0 0 0 0 0 0 0 0 -0 -0 0 0 0 0 0 0 0 0 0 0 0 0 0 0 0 0 0 0 0 0 0 0 0 0 0
0 0 0 0 0 0 0 0 0 0 0 -0 0 0 0 0 0 0 0 -0 -0 -0 -0 0 0 0 0 0 0 0 0 0 0 0 0 0 0 0 0 0 0 0 0 0 0 0 0
0 0 0 0 0 0 0 0 0 0 0 0 0 0 0 0 0 0 0 0 0 0 0 0 0 0 0 0 0 0 0 0 0 0 0 0 0 0 0 0 0 0 0 0 0 0 0
0 0 0 0 0 0 0 0 0 -0 0 -0 0 0 0 0 0 0 0 0 0 0 0 0 0 0 0 0 0 0 0 0 0 0 0 0 0 0 0 0 0 0 0 0 0 0 0
0 0 0 0 0 0 0 0 -0 -0 -0 0 0 0 0 0 0 0 0 0 0 0 0 0 0 0 0 0 0 0 0 0 0 0 0 0 0 0 0 0 0 0 0 0 0 0 0
0 0 0 0 0 0 0 0 0 -0 -0 0 0 0 0 0 0 0 0 0 0 0 0 0 0 0 0 0 0 0 0 0 0 0 0 0 0 0 0 0 0 0 0 0 0 0 0
0 0 0 0 0 0 0 0 0 0 0 0 0 0 0 0 0 0 0 0 0 0 0 0 0 0 0 0 0 0 0 0 0 0 0 0 0 0 0 0 0 0 0 0 0 0 0
0 0 0 0 0 0 0 0 0 0 0 0 0 0 0 0 0 0 0 0 0 0 0 0 0 0 0 0 0 0 0 0 0 0 0 0 0 0 0 0 0 0 0 0 0 0 0
0 0 0 0 0 0 0 0 0 0 0 0 0 0 0 0 0 0 0 0 0 0 0 0 0 0 0 0 0 0 0 0 0 0 0 0 0 0 0 0 0 0 0 0 0 0 0
0 0 0 0 0 0 0 0 0 0 0 0 0 0 0 0 0 0 0 0 0 0 0 0 0 0 0 0 0 0 0 0 0 0 0 0 0 0 0 0 0 0 0 0 0 0 0
0 0 0 0 0 0 0 0 0 0 0 0 0 0 0 0 0 0 0 0 0 0 0 0 0 0 0 0 0 0 0 0 0 0 0 0 0 0 0 0 0 0 0 0 0 0 0
0 0 0 0 0 0 0 0 0 0 0 0 0 0 0 0 0 0 0 0 0 0 0 0 0 0 0 0 0 0 0 0 0 0 0 0 0 0 0 0 0 0 0 0 0 0 0
0 0 0 0 0 0 0 0 0 0 0 0 0 0 0 0 0 0 0 0 0 0 0 0 0 0 0 0 0 0 0 0 0 0 0 0 0 0 0 0 0 0 0 0 0 0 0
Wind_Speed_500mb
37 38 38 38 38 38 38 38 38 38 39 39 39 38 37 36 34 32 25 22 21 16 12 14 16 19 22 11 10 4 12 8 15 15 11 12 3 4 3 4 1 8 12 26 52 4 32
38 39 40 40 40 39 39 40 40 40 40 40 40 39 38 36 34 31 27 21 19 13 13 14 17 19 19 9 5 2 5 5 9 10 8 11 5 13 13 6 9 8 20 23 33 43 46
37 39 41 42 41 41 41 43 43 43 43 42 41 41 40 38 35 30 27 22 18 14 14 17 17 20 28 21 6 5 5 4 1 2 4 8 17 11 2 9 7 14 8 5 33 26 17
39 40 40 41 43 44 44 44 46 48 47 46 44 42 40 39 36 31 27 22 19 17 17 19 17 20 16 8 14 17 10 8 7 14 7 6 11 17 9 10 13 7 9 5 13 28 23
41 42 43 44 45 46 47 47 48 50 50 50 48 45 42 40 38 33 27 23 18 20 22 22 18 13 18 15 25 11 15 11 10 18 11 16 14 6 5 7 10 13 4 7 8 27 15
44 45 46 48 48 49 50 50 50 50 51 52 51 48 44 41 39 34 26 22 16 21 25 23 22 13 21 5 17 22 18 19 22 8 17 12 2 5 7 9 6 4 9 8 10 4 13
46 48 49 50 51 52 53 53 53 52 52 51 51 51 47 41 40 33 24 16 12 9 16 19 16 21 24 19 9 20 27 20 17 5 3 5 8 8 14 10 6 3 5 11 14 12 18
48 49 50 51 52 54 55 55 55 54 53 53 52 51 48 42 38 32 20 11 3 6 20 33 40 45 45 40 17 20 23 19 6 6 2 10 10 19 9 10 11 5 9 8 21 22 25
47 49 51 51 52 54 56 56 56 54 54 53 51 51 48 41 38 18 12 8 8 19 8 25 29 31 32 17 31 34 27 22 6 1 7 10 17 7 4 5 8 5 5 2 14 29 30
45 46 48 50 53 53 54 57 57 56 53 53 50 48 47 43 22 13 7 4 25 6 8 12 9 17 21 18 12 31 41 14 3 15 9 11 12 11 6 6 9 7 7 17 23 13 12
45 46 48 49 52 53 54 54 57 58 56 52 50 47 43 37 37 28 14 19 12 7 6 4 8 7 21 19 3 17 28 35 10 9 6 14 8 13 10 3 8 7 5 5 8 9 10
45 45 47 49 50 53 54 55 55 57 56 54 50 45 44 36 33 15 8 6 10 10 11 7 14 10 12 13 8 3 18 19 10 5 1 13 8 6 10 6 8 7 10 15 9 7 4
45 46 46 48 50 52 55 57 57 56 57 57 51 42 43 36 23 7 6 8 9 6 9 6 10 9 12 11 7 7 11 9 9 6 4 8 6 4 7 10 10 17 13 7 8 9 10
42 45 47 49 50 52 56 59 60 59 56 59 51 43 34 30 22 17 10 8 7 8 12 10 3 10 15 12 11 10 9 5 6 8 5 6 8 7 2 7 9 8 12 10 7 6 9
45 45 46 48 51 53 56 60 63 62 57 60 50 37 21 11 24 28 16 6 14 12 6 12 8 9 10 11 13 10 16 11 16 15 12 8 3 6 11 7 8 5 7 6 11 5 5
42 45 47 48 51 54 55 59 63 65 57 57 51 32 1 8 26 26 8 12 9 9 10 7 5 8 11 2 9 11 15 7 9 12 15 12 7 4 6 13 14 8 10 6 7 3 6
43 44 46 48 51 54 57 57 61 67 58 48 33 14 6 20 21 7 7 12 10 18 18 7 8 3 5 6 9 14 17 4 7 8 4 10 9 8 5 4 7 4 3 13 9 8 9
44 45 46 49 50 52 56 57 56 64 63 46 17 5 11 26 4 4 5 11 5 18 18 11 8 8 7 3 5 5 10 4 12 21 12 2 10 7 3 11 8 6 9 10 10 7 3
42 44 46 48 51 52 54 56 53 54 56 55 35 12 5 19 5 4 10 8 12 10 11 7 7 4 3 5 6 4 7 11 6 9 14 12 5 6 13 12 10 4 4 8 9 6 11
44 44 46 47 49 52 53 55 51 49 44 35 16 8 10 10 12 5 6 9 9 13 13 15 13 6 5 1 4 6 6 13 11 12 18 15 7 12 14 11 6 5 3 7 10 7 8
42 44 45 46 48 48 52 54 53 45 38 23 15 5 8 7 8 7 5 10 11 13 12 22 4 5 8 7 5 8 6 6 13 7 9 9 8 5 4 5 5 6 10 4 13 11 12
40 41 43 45 46 47 48 51 53 47 36 11 13 14 17 10 19 9 10 9 9 11 7 11 3 5 6 10 13 15 13 5 10 6 7 7 3 4 1 3 1 7 12 14 11 7 4
40 40 41 43 44 43 43 45 47 48 41 16 17 8 9 11 11 5 4 10 9 18 15 13 6 7 5 6 15 33 33 26 22 16 6 8 10 7 6 7 8 10 11 9 5 8 14
40 41 39 40 41 41 40 39 39 39 38 30 20 15 9 8 6 3 8 12 13 14 10 22 8 5 5 29 39 34 29 26 23 13 13 10 9 5 4 6 2 14 11 8 13 5 3
39 38 41 42 39 39 38 35 33 32 29 25 12 10 7 7 13 18 19 9 30 30 8 9 13 12 5 4 10 11 11 8 6 11 5 6 11 6 8 7 9 11 6 9 8 4 5
36 36 37 37 39 38 38 35 30 29 26 15 9 11 7 10 7 8 13 14 6 9 15 11 9 12 2 6 5 9 10 12 8 5 10 13 11 10 6 8 11 12 10 9 12 5 21
35 34 35 36 36 38 38 33 31 28 25 19 3 7 10 12 17 13 5 8 10 5 5 14 25 14 13 5 3 5 7 9 10 16 10 7 7 11 5 5 13 15 18 3 8 13 40
37 35 34 34 35 35 33 32 28 27 25 20 11 7 9 13 42 47 27 23 26 12 3 16 12 7 8 5 6 8 6 9 7 11 13 14 13 8 6 5 12 13 8 14 12 19 48
37 37 35 35 34 33 32 30 29 25 24 25 22 10 17 28 33 36 44 47 49 36 22 10 9 10 1 5 2 4 3 3 10 8 3 5 13 12 14 13 10 16 10 20 30 39 46
Wind_Direction_500mb
22 21 19 16 14 11 8 5 3 2 1 359 356 354 352 352 352 349 335 321 318 314 311 317 325 328 330 296 273 319 295 284 210 215 217 185 212 202 217 229 182 214 263 268 273 89 93
13 12 12 11 8 7 4 0 357 354 353 351 350 348 346 345 343 346 339 321 312 303 301 309 319 317 315 281 253 295 26 135 164 176 169 198 276 317 282 249 174 269 283 279 106 105 117
7 6 5 3 2 360 359 355 352 350 348 345 344 342 341 339 336 337 337 320 303 291 295 307 313 308 298 260 214 228 152 146 73 51 290 289 318 279 209 288 273 282 322 26 129 120 118
359 359 358 357 355 353 351 350 347 345 343 340 338 338 335 333 331 327 330 313 292 285 291 303 305 302 267 198 219 226 226 228 264 283 285 330 297 288 234 296 338 2 46 42 156 164 170
352 351 350 349 348 346 344 343 342 340 340 337 333 331 332 330 325 320 322 310 281 278 284 293 293 291 268 235 237 232 227 236 285 278 252 279 297 276 320 69 360 5 248 256 280 184 119
345 344 343 342 341 340 339 338 338 336 335 336 333 328 327 327 322 316 316 309 276 271 273 280 265 289 250 309 275 227 227 255 273 276 268 262 266 56 35 73 208 264 343 300 245 108 78
339 338 337 337 336 336 335 334 334 334 333 333 332 328 326 325 321 315 309 312 276 261 237 238 269 252 287 326 284 244 220 236 224 268 161 5 64 242 225 197 220 223 234 260 39 106 70
334 334 333 333 332 332 331 331 331 331 330 330 330 327 325 324 318 314 299 280 251 6 296 270 272 269 263 273 289 250 218 204 167 203 60 9 249 242 224 209 219 185 242 77 81 42 86
331 331 331 330 329 330 330 329 329 328 327 327 327 326 324 323 319 309 301 353 325 328 256 290 243 242 252 237 249 250 217 205 139 155 202 181 244 22 153 318 114 42 67 62 125 71 92
333 332 331 330 328 329 329 329 327 327 326 325 325 324 323 323 317 312 322 292 340 352 43 273 224 224 212 232 275 244 207 166 177 207 232 222 279 216 9 207 129 98 182 119 134 103 165
334 333 332 331 330 329 328 327 327 326 325 324 322 322 317 314 302 298 292 313 339 105 344 208 198 190 182 176 243 218 203 198 186 218 103 265 330 113 104 48 129 166 123 84 125 123 114
336 336 335 333 333 332 330 328 327 326 325 322 320 319 309 305 294 296 248 294 133 47 256 300 155 174 121 188 244 109 180 186 202 155 305 249 300 119 126 58 58 107 77 41 54 92 72
338 337 337 336 336 333 331 329 328 328 327 322 318 314 299 285 275 257 201 151 53 161 315 243 190 146 166 178 225 187 179 172 162 109 345 325 352 360 122 92 27 68 54 359 353 4 216
339 338 339 339 337 335 333 332 330 329 331 324 319 312 291 278 252 218 189 65 175 242 258 320 275 129 176 162 230 214 147 196 218 104 103 111 356 349 351 129 138 83 131 149 209 226 266
341 341 341 342 340 338 337 335 334 331 335 329 324 319 294 236 209 187 178 116 205 213 284 336 347 138 225 199 180 144 189 205 185 168 142 130 358 327 55 95 108 161 57 166 103 24 36
341 341 342 342 342 340 339 339 337 333 339 337 329 327 79 193 164 165 99 217 225 224 354 314 261 166 183 269 153 155 179 223 214 192 144 197 99 345 21 63 32 98 154 58 14 205 270
345 345 342 343 344 343 342 343 342 336 340 344 334 332 14 156 157 171 172 227 265 287 330 328 299 196 149 140 197 191 208 284 176 105 127 127 107 271 41 58 177 29 48 54 109 129 173
344 346 345 344 344 344 344 344 348 343 342 350 359 344 127 161 85 38 164 201 262 294 288 274 250 207 174 195 58 122 164 210 190 151 116 102 122 119 176 306 271 156 158 135 121 225 132
344 344 345 347 345 346 346 346 350 351 345 342 335 300 42 186 144 283 295 285 247 239 245 242 263 208 201 187 109 107 75 2 75 89 157 181 30 63 359 355 352 109 129 99 108 84 187
341 342 343 346 347 347 347 348 350 353 347 345 345 353 348 50 73 88 359 269 279 254 261 240 203 134 102 324 73 141 106 13 26 82 96 92 106 153 183 187 176 284 299 140 125 118 195
334 337 340 341 344 347 348 349 350 357 352 353 8 358 9 337 344 352 312 325 334 347 334 349 35 99 158 151 95 108 81 97 22 32 59 96 124 139 143 162 191 226 252 217 198 207 164
327 330 333 337 340 343 346 350 351 357 5 6 16 5 344 302 315 349 4 8 336 315 284 312 357 317 165 161 165 191 135 149 175 37 76 12 149 91 348 269 182 250 265 263 222 123 77
325 328 329 332 336 339 343 348 352 355 8 33 13 7 331 312 341 48 24 324 316 332 276 240 228 114 84 254 231 200 177 159 163 141 118 99 124 85 250 346 360 323 238 237 174 150 145
326 330 331 330 334 337 339 344 350 355 3 7 5 359 7 292 326 23 331 317 305 304 251 297 45 105 40 108 99 98 92 108 113 63 122 119 95 90 176 35 254 245 285 246 114 75 231
320 321 327 330 328 332 336 337 344 348 355 358 15 18 347 293 319 306 343 314 319 327 309 283 7 355 337 182 66 58 357 61 80 44 71 100 118 96 142 180 290 292 227 172 155 220 161
316 318 319 325 328 330 333 333 336 340 344 0 21 354 294 311 241 330 315 315 329 331 328 319 303 13 66 77 75 136 182 189 179 98 60 73 68 116 144 148 214 238 280 189 111 297 168
315 314 314 317 318 324 326 327 327 332 335 340 190 309 298 276 276 290 254 297 332 358 269 307 337 346 29 84 141 157 210 176 157 159 164 76 38 149 126 187 286 243 244 268 95 237 178
315 316 316 315 317 321 325 324 322 323 327 325 283 278 313 264 272 269 248 264 287 291 279 325 342 331 21 89 141 208 165 215 125 169 174 160 149 175 99 98 278 195 97 173 198 155 179
310 308 309 311 313 315 318 318 319 313 320 318 298 254 273 270 265 277 273 269 266 260 285 298 277 287 20 84 15 92 223 101 152 207 90 169 177 180 167 206 240 192 230 207 173 168 183
Wind_Speed_850mb
37 38 38 38 38 38 38 38 38 38 39 39 39 38 37 36 34 32 25 22 21 16 12 14 16 19 22 11 10 4 12 8 15 15 11 12 3 4 3 4 1 8 12 26 52 4 32
38 39 40 40 40 39 39 40 40 40 40 40 40 39 38 36 34 31 27 21 19 13 13 14 17 19 19 9 5 2 5 5 9 10 8 11 5 13 13 6 9 8 20 23 33 43 46
37 39 41 42 41 41 41 43 43 43 43 42 41 41 40 38 35 30 27 22 18 14 14 17 17 20 28 21 6 5 5 4 1 2 4 8 17 11 2 9 7 14 8 5 33 26 17
39 40 40 41 43 44 44 44 46 48 47 46 44 42 40 39 36 31 27 22 19 17 17 19 17 20 16 8 14 17 10 8 7 14 7 6 11 17 9 10 13 7 9 5 13 28 23
41 42 43 44 45 46 47 47 48 50 50 50 48 45 42 40 38 33 27 23 18 20 22 22 18 13 18 15 25 11 15 11 10 18 11 16 14 6 5 7 10 13 4 7 8 27 15
44 45 46 48 48 49 50 50 50 50 51 52 51 48 44 41 39 34 26 22 16 21 25 23 22 13 21 5 17 22 18 19 22 8 17 12 2 5 7 9 6 4 9 8 10 4 13
46 48 49 50 51 52 53 53 53 52 52 51 51 51 47 41 40 33 24 16 12 9 16 19 16 21 24 19 9 20 27 20 17 5 3 5 8 8 14 10 6 3 5 11 14 12 18
48 49 50 51 52 54 55 55 55 54 53 53 52 51 48 42 38 32 20 11 3 6 20 33 40 45 45 40 17 20 23 19 6 6 2 10 10 19 9 10 11 5 9 8 21 22 25
47 49 51 51 52 54 56 56 56 54 54 53 51 51 48 41 38 18 12 8 8 19 8 25 29 31 32 17 31 34 27 22 6 1 7 10 17 7 4 5 8 5 5 2 14 29 30
45 46 48 50 53 53 54 57 57 56 53 53 50 48 47 43 22 13 7 4 25 6 8 12 9 17 21 18 12 31 41 14 3 15 9 11 12 11 6 6 9 7 7 17 23 13 12
45 46 48 49 52 53 54 54 57 58 56 52 50 47 43 37 37 28 14 19 12 7 6 4 8 7 21 19 3 17 28 35 10 9 6 14 8 13 10 3 8 7 5 5 8 9 10
45 45 47 49 50 53 54 55 55 57 56 54 50 45 44 36 33 15 8 6 10 10 11 7 14 10 12 13 8 3 18 19 10 5 1 13 8 6 10 6 8 7 10 15 9 7 4
45 46 46 48 50 52 55 57 57 56 57 57 51 42 43 36 23 7 6 8 9 6 9 6 10 9 12 11 7 7 11 9 9 6 4 8 6 4 7 10 10 17 13 7 8 9 10
42 45 47 49 50 52 56 59 60 59 56 59 51 43 34 30 22 17 10 8 7 8 12 10 3 10 15 12 11 10 9 5 6 8 5 6 8 7 2 7 9 8 12 10 7 6 9
45 45 46 48 51 53 56 60 63 62 57 60 50 37 21 11 24 28 16 6 14 12 6 12 8 9 10 11 13 10 16 11 16 15 12 8 3 6 11 7 8 5 7 6 11 5 5
42 45 47 48 51 54 55 59 63 65 57 57 51 32 1 8 26 26 8 12 9 9 10 7 5 8 11 2 9 11 15 7 9 12 15 12 7 4 6 13 14 8 10 6 7 3 6
43 44 46 48 51 54 57 57 61 67 58 48 33 14 6 20 21 7 7 12 10 18 18 7 8 3 5 6 9 14 17 4 7 8 4 10 9 8 5 4 7 4 3 13 9 8 9
44 45 46 49 50 52 56 57 56 64 63 46 17 5 11 26 4 4 5 11 5 18 18 11 8 8 7 3 5 5 10 4 12 21 12 2 10 7 3 11 8 6 9 10 10 7 3
42 44 46 48 51 52 54 56 53 54 56 55 35 12 5 19 5 4 10 8 12 10 11 7 7 4 3 5 6 4 7 11 6 9 14 12 5 6 13 12 10 4 4 8 9 6 11
44 44 46 47 49 52 53 55 51 49 44 35 16 8 10 10 12 5 6 9 9 13 13 15 13 6 5 1 4 6 6 13 11 12 18 15 7 12 14 11 6 5 3 7 10 7 8
42 44 45 46 48 48 52 54 53 45 38 23 15 5 8 7 8 7 5 10 11 13 12 22 4 5 8 7 5 8 6 6 13 7 9 9 8 5 4 5 5 6 10 4 13 11 12
40 41 43 45 46 47 48 51 53 47 36 11 13 14 17 10 19 9 10 9 9 11 7 11 3 5 6 10 13 15 13 5 10 6 7 7 3 4 1 3 1 7 12 14 11 7 4
40 40 41 43 44 43 43 45 47 48 41 16 17 8 9 11 11 5 4 10 9 18 15 13 6 7 5 6 15 33 33 26 22 16 6 8 10 7 6 7 8 10 11 9 5 8 14
40 41 39 40 41 41 40 39 39 39 38 30 20 15 9 8 6 3 8 12 13 14 10 22 8 5 5 29 39 34 29 26 23 13 13 10 9 5 4 6 2 14 11 8 13 5 3
39 38 41 42 39 39 38 35 33 32 29 25 12 10 7 7 13 18 19 9 30 30 8 9 13 12 5 4 10 11 11 8 6 11 5 6 11 6 8 7 9 11 6 9 8 4 5
36 36 37 37 39 38 38 35 30 29 26 15 9 11 7 10 7 8 13 14 6 9 15 11 9 12 2 6 5 9 10 12 8 5 10 13 11 10 6 8 11 12 10 9 12 5 21
35 34 35 36 36 38 38 33 31 28 25 19 3 7 10 12 17 13 5 8 10 5 5 14 25 14 13 5 3 5 7 9 10 16 10 7 7 11 5 5 13 15 18 3 8 13 40
37 35 34 34 35 35 33 32 28 27 25 20 11 7 9 13 42 47 27 23 26 12 3 16 12 7 8 5 6 8 6 9 7 11 13 14 13 8 6 5 12 13 8 14 12 19 48
37 37 35 35 34 33 32 30 29 25 24 25 22 10 17 28 33 36 44 47 49 36 22 10 9 10 1 5 2 4 3 3 10 8 3 5 13 12 14 13 10 16 10 20 30 39 46
Wind_Direction_850mb
22 21 19 16 14 11 8 5 3 2 1 359 356 354 352 352 352 349 335 321 318 314 311 317 325 328 330 296 273 319 295 284 210 215 217 185 212 202 217 229 182 214 263 268 273 89 93
13 12 12 11 8 7 4 0 357 354 353 351 350 348 346 345 343 346 339 321 312 303 301 309 319 317 315 281 253 295 26 135 164 176 169 198 276 317 282 249 174 269 283 279 106 105 117
7 6 5 3 2 360 359 355 352 350 348 345 344 342 341 339 336 337 337 320 303 291 295 307 313 308 298 260 214 228 152 146 73 51 290 289 318 279 209 288 273 282 322 26 129 120 118
359 359 358 357 355 353 351 350 347 345 343 340 338 338 335 333 331 327 330 313 292 285 291 303 305 302 267 198 219 226 226 228 264 283 285 330 297 288 234 296 338 2 46 42 156 164 170
352 351 350 349 348 346 344 343 342 340 340 337 333 331 332 330 325 320 322 310 281 278 284 293 293 291 268 235 237 232 227 236 285 278 252 279 297 276 320 69 360 5 248 256 280 184 119
345 344 343 342 341 340 339 338 338 336 335 336 333 328 327 327 322 316 316 309 276 271 273 280 265 289 250 309 275 227 227 255 273 276 268 262 266 56 35 73 208 264 343 300 245 108 78
339 338 337 337 336 336 335 334 334 334 333 333 332 328 326 325 321 315 309 312 276 261 237 238 269 252 287 326 284 244 220 236 224 268 161 5 64 242 225 197 220 223 234 260 39 106 70
334 334 333 333 332 332 331 331 331 331 330 330 330 327 325 324 318 314 299 280 251 6 296 270 272 269 263 273 289 250 218 204 167 203 60 9 249 242 224 209 219 185 242 77 81 42 86
331 331 331 330 329 330 330 329 329 328 327 327 327 326 324 323 319 309 301 353 325 328 256 290 243 242 252 237 249 250 217 205 139 155 202 181 244 22 153 318 114 42 67 62 125 71 92
333 332 331 330 328 329 329 329 327 327 326 325 325 324 323 323 317 312 322 292 340 352 43 273 224 224 212 232 275 244 207 166 177 207 232 222 279 216 9 207 129 98 182 119 134 103 165
334 333 332 331 330 329 328 327 327 326 325 324 322 322 317 314 302 298 292 313 339 105 344 208 198 190 182 176 243 218 203 198 186 218 103 265 330 113 104 48 129 166 123 84 125 123 114
336 336 335 333 333 332 330 328 327 326 325 322 320 319 309 305 294 296 248 294 133 47 256 300 155 174 121 188 244 109 180 186 202 155 305 249 300 119 126 58 58 107 77 41 54 92 72
338 337 337 336 336 333 331 329 328 328 327 322 318 314 299 285 275 257 201 151 53 161 315 243 190 146 166 178 225 187 179 172 162 109 345 325 352 360 122 92 27 68 54 359 353 4 216
339 338 339 339 337 335 333 332 330 329 331 324 319 312 291 278 252 218 189 65 175 242 258 320 275 129 176 162 230 214 147 196 218 104 103 111 356 349 351 129 138 83 131 149 209 226 266
341 341 341 342 340 338 337 335 334 331 335 329 324 319 294 236 209 187 178 116 205 213 284 336 347 138 225 199 180 144 189 205 185 168 142 130 358 327 55 95 108 161 57 166 103 24 36
341 341 342 342 342 340 339 339 337 333 339 337 329 327 79 193 164 165 99 217 225 224 354 314 261 166 183 269 153 155 179 223 214 192 144 197 99 345 21 63 32 98 154 58 14 205 270
345 345 342 343 344 343 342 343 342 336 340 344 334 332 14 156 157 171 172 227 265 287 330 328 299 196 149 140 197 191 208 284 176 105 127 127 107 271 41 58 177 29 48 54 109 129 173
344 346 345 344 344 344 344 344 348 343 342 350 359 344 127 161 85 38 164 201 262 294 288 274 250 207 174 195 58 122 164 210 190 151 116 102 122 119 176 306 271 156 158 135 121 225 132
344 344 345 347 345 346 346 346 350 351 345 342 335 300 42 186 144 283 295 285 247 239 245 242 263 208 201 187 109 107 75 2 75 89 157 181 30 63 359 355 352 109 129 99 108 84 187
341 342 343 346 347 347 347 348 350 353 347 345 345 353 348 50 73 88 359 269 279 254 261 240 203 134 102 324 73 141 106 13 26 82 96 92 106 153 183 187 176 284 299 140 125 118 195
334 337 340 341 344 347 348 349 350 357 352 353 8 358 9 337 344 352 312 325 334 347 334 349 35 99 158 151 95 108 81 97 22 32 59 96 124 139 143 162 191 226 252 217 198 207 164
327 330 333 337 340 343 346 350 351 357 5 6 16 5 344 302 315 349 4 8 336 315 284 312 357 317 165 161 165 191 135 149 175 37 76 12 149 91 348 269 182 250 265 263 222 123 77
325 328 329 332 336 339 343 348 352 355 8 33 13 7 331 312 341 48 24 324 316 332 276 240 228 114 84 254 231 200 177 159 163 141 118 99 124 85 250 346 360 323 238 237 174 150 145
326 330 331 330 334 337 339 344 350 355 3 7 5 359 7 292 326 23 331 317 305 304 251 297 45 105 40 108 99 98 92 108 113 63 122 119 95 90 176 35 254 245 285 246 114 75 231
320 321 327 330 328 332 336 337 344 348 355 358 15 18 347 293 319 306 343 314 319 327 309 283 7 355 337 182 66 58 357 61 80 44 71 100 118 96 142 180 290 292 227 172 155 220 161
316 318 319 325 328 330 333 333 336 340 344 0 21 354 294 311 241 330 315 315 329 331 328 319 303 13 66 77 75 136 182 189 179 98 60 73 68 116 144 148 214 238 280 189 111 297 168
315 314 314 317 318 324 326 327 327 332 335 340 190 309 298 276 276 290 254 297 332 358 269 307 337 346 29 84 141 157 210 176 157 159 164 76 38 149 126 187 286 243 244 268 95 237 178
315 316 316 315 317 321 325 324 322 323 327 325 283 278 313 264 272 269 248 264 287 291 279 325 342 331 21 89 141 208 165 215 125 169 174 160 149 175 99 98 278 195 97 173 198 155 179
310 308 309 311 313 315 318 318 319 313 320 318 298 254 273 270 265 277 273 269 266 260 285 298 277 287 20 84 15 92 223 101 152 207 90 169 177 180 167 206 240 192 230 207 173 168 183